Printer-friendly version

IAU Minor Planet Center

Minor Planet Center

MPEC 2004-V79 : COMET P/2004 V5 = 2003 YM159 (LINEAR-HILL)

The following Minor Planet Electronic Circular may be linked-to from your own Web pages, but must not otherwise be redistributed electronically.


Read MPEC 2004-V78 Read MPEC 2004-V80


M.P.E.C. 2004-V79                                Issued 2004 Nov. 15, 22:39 UT

     The Minor Planet Electronic Circulars contain information on unusual
         minor planets and routine data on comets.  They are published
   on behalf of Commission 20 of the International Astronomical Union by the
          Minor Planet Center, Smithsonian Astrophysical Observatory,
                          Cambridge, MA 02138, U.S.A.

                  Supported in part by the Brinson Foundation
             Prepared using the Tamkin Foundation Computer Network

                              MPC@CFA.HARVARD.EDU
          URL http://cfa-www.harvard.edu/iau/mpc.html  ISSN 1523-6714

                  COMET P/2004 V5 = 2003 YM159 (LINEAR-HILL)

Observations:
    PK04V05a  C2004 11 10.46635 09 33 16.44 +34 59 27.7          17.6 T EV079703
    PK04V05a  C2004 11 10.47529 09 33 16.77 +34 59 28.6          17.9 T EV079703
    PK04V05a  C2004 11 10.48425 09 33 17.13 +34 59 29.4          17.8 T EV079703
    PK04V05a  C2004 11 10.49322 09 33 17.41 +34 59 31.4          17.6 T EV079703
    PK04V05a  C2004 11 11.17827 09 33 43.49 +35 01 04.7          18.8 T EV079J95
    PK04V05a  C2004 11 11.18573 09 33 43.85 +35 01 06.3                 EV079J95
    PK04V05a  C2004 11 12.79343 09 34 43.09 +35 04 58.3          18.2 T EV079360
    PK04V05a  C2004 11 12.79712 09 34 43.26 +35 04 58.8                 EV079360
    PK04V05a  C2004 11 12.80172 09 34 43.36 +35 04 59.5                 EV079360
    PK04V05a  C2004 11 12.99129 09 34 50.22 +35 05 27.2          19.0 T EV079J87
    PK04V05a  C2004 11 13.00146 09 34 50.63 +35 05 28.4          18.5 T EV079J87
    PK04V05a  C2004 11 13.01143 09 34 50.99 +35 05 30.1          17.8 T EV079J87
    PK04V05a  C2004 11 13.21192 09 34 58.07 +35 05 58.2          18.5 T EV079J95
    PK04V05a  C2004 11 13.21936 09 34 58.30 +35 06 00.5          18.7 T EV079J95
    PK04V05a  C2004 11 13.22678 09 34 58.57 +35 06 01.8          18.8 T EV079J95
    PK04V05a  C2004 11 14.10439 09 35 29.74 +35 08 15.6          18.6 T EV079J95
    PK04V05a  C2004 11 14.14269 09 35 31.10 +35 08 21.3          18.9 T EV079J95
    PK04V05b  C2004 11 10.46635 09 33 08.06 +35 00 02.4          18.1 T EV079703
    PK04V05b  C2004 11 10.47529 09 33 08.48 +35 00 02.3          17.6 T EV079703
    PK04V05b  C2004 11 10.48425 09 33 08.73 +35 00 04.5          18.0 T EV079703
    PK04V05b  C2004 11 10.49322 09 33 09.19 +35 00 04.7          17.9 T EV079703
    PK04V05b  C2004 11 11.17827 09 33 35.04 +35 01 39.5          19.2 T EV079J95
    PK04V05b  C2004 11 11.18573 09 33 35.39 +35 01 39.6                 EV079J95
    PK04V05b  C2004 11 12.79343 09 34 34.59 +35 05 33.6          19.0 T EV079360
    PK04V05b  C2004 11 12.79712 09 34 34.67 +35 05 33.7                 EV079360
    PK04V05b  C2004 11 12.80172 09 34 34.80 +35 05 34.7                 EV079360
    PK04V05b  C2004 11 12.99129 09 34 41.80 +35 06 03.3          19.3 T EV079J87
    PK04V05b  C2004 11 13.00146 09 34 42.04 +35 06 04.1          19.8 T EV079J87
    PK04V05b  C2004 11 13.01143 09 34 42.44 +35 06 04.8          18.8 T EV079J87
    PK04V05b  C2004 11 13.18018 09 34 48.39 +35 06 30.6          19.2 T EV079J95
    PK04V05b  C2004 11 13.21192 09 34 49.48 +35 06 34.8          19.7 T EV079J95
    PK04V05b  C2004 11 13.21936 09 34 49.69 +35 06 36.6          19.2 T EV079J95
    PK04V05b  C2004 11 13.22678 09 34 50.08 +35 06 37.2          19.3 T EV079J95
    PK04V05b  C2004 11 14.10439 09 35 21.20 +35 08 51.5          19.1 T EV079J95
    PK04V05b  C2004 11 14.14269 09 35 22.50 +35 08 57.7          19.6 T EV079J95

Observer details:
360 Kuma Kogen.  Observer A. Nakamura.  0.60-m f/5.8 Ritchey-Chretien + CCD.
703 Catalina Sky Survey.  Observer R. Hill.  Measurers E. C. Beshore,
    C. M. Casey, E. J. Christensen, G. J. Garradd, R. E. Hill, S. M. Larson,
    R. H. McNaught.  0.68-m Schmidt + CCD.
J87 La Canada.  Observer J. Lacruz.  0.30-m f/10 Schmidt-Cassegrain + CCD.
J95 Great Shefford.  Observer P. Birtwhistle.  0.30-m f/6.3 Schmidt-Cassegrain
    + CCD.

Orbital elements:
    P/2004 V5 (LINEAR-Hill)
Epoch 2005 Mar. 11.0 TT = JDT 2453440.5
T 2005 Feb. 28.69350 TT                                 MPC
q   4.4109707            (2000.0)            P               Q
n   0.04396063     Peri.   87.68364     -0.67188508     -0.69868447
a   7.9510915      Node    47.85896     +0.47606638     -0.66160814
e   0.4452371      Incl.   19.35818     +0.56738985     -0.27224012
P  22.42
From 35 observations 2003 Dec. 17-2004 Nov. 14, mean residual 0".71.

Ephemeris:
    P/2004 V5 (LINEAR-Hill)
Date    TT    R. A. (2000) Decl.     Delta      r     Elong.  Phase   m1    m2
2004 11 11    09 33.61   +35 00.7    4.264    4.451    94.4    12.8  17.6
2004 11 21    09 39.18   +35 27.9    4.118    4.444   102.9    12.5  17.6
2004 12 01    09 43.22   +36 03.0    3.978    4.438   111.7    11.9  17.5
2004 12 11    09 45.60   +36 45.2    3.850    4.432   120.6    11.0  17.4
2004 12 21    09 46.18   +37 33.2    3.736    4.427   129.5     9.9  17.3
2004 12 31    09 44.94   +38 24.1    3.641    4.423   138.3     8.5  17.3
2005 01 10    09 41.96   +39 14.7    3.568    4.419   146.3     7.1  17.2
2005 01 20    09 37.47   +40 00.8    3.520    4.416   152.5     5.9  17.2
2005 01 30    09 31.89   +40 38.2    3.499    4.414   155.4     5.3  17.2
2005 02 09    09 25.74   +41 03.5    3.506    4.412   153.6     5.7  17.2
2005 02 19    09 19.65   +41 14.3    3.541    4.411   148.1     6.8  17.2
2005 03 01    09 14.27   +41 10.0    3.600    4.411   140.6     8.2  17.2
2005 03 11    09 10.07   +40 51.4    3.683    4.411   132.1     9.6  17.3
2005 03 21    09 07.43   +40 19.9    3.785    4.412   123.4    10.9  17.3
2005 03 31    09 06.52   +39 38.0    3.902    4.414   114.7    11.9  17.4
2005 04 10    09 07.39   +38 47.6    4.031    4.416   106.2    12.6  17.5
2005 04 20    09 09.94   +37 50.7    4.167    4.420    97.9    13.0  17.6
2005 04 30    09 14.05   +36 48.8    4.308    4.423    89.9    13.2  17.6
2005 05 10    09 19.51   +35 43.2    4.451    4.428    82.2    13.1  17.7
2005 05 20    09 26.15   +34 34.5    4.592    4.433    74.7    12.7  17.8
2005 05 30    09 33.77   +33 23.6    4.728    4.438    67.4    12.2  17.8
2005 06 09    09 42.21   +32 10.9    4.858    4.445    60.4    11.4  17.9
2005 06 19    09 51.32   +30 56.7    4.980    4.452    53.5    10.6  18.0
2005 06 29    10 00.94   +29 41.4    5.092    4.459    46.9     9.6  18.0
2005 07 09    10 10.98   +28 25.3    5.193    4.468    40.4     8.5  18.1
2005 07 19    10 21.32   +27 08.7    5.280    4.477    34.2     7.3  18.1

     Consultation with the IAU Committee on Small-Body Nomenclature has
yielded the decision to introduce for this comet (cf. IAUC 8433, MPEC 2004-V52)
the new principal designation P/2004 V5 and to replace the name LINEAR-
Catalina with LINEAR-Hill.  The components A and B are defined as before,
although the opportunity has also been taken to reprint here the previously
tabulated Nov. 10.5 observations with their new coded designations.  The
orbital elements and ephemeris refer to component A.  Component B will pass
perihelion 0.23 day after component A.

Brian G. Marsden             (C) Copyright 2004 MPC           M.P.E.C. 2004-V79

Read MPEC 2004-V78 Read MPEC 2004-V80


Our Web policy. Index to the CBAT/MPC/ICQ pages.


Valid HTML 4.01!